Flag for Saudi Arabia Weather past 2 weeks in Medina, Saudi Arabia

Now
111 °F

Scattered clouds.


Feels Like: 102 °F
Forecast: 80 / 109 °F
Wind: 18 mph from Northwest

Location: Madinah

Current Time: Jul 7, 2015 at 5:06:24 PM

Latest Report: Jul 7, 2015 at 4:00 PM


Visibility: N/A

Pressure: 29.77 "Hg (27.89 "Hg at 606m altitude)

Humidity: 3%

Dew point: 18 °F

Location of MedinaLocation

Historic Weather in Medina — Graph

°F

Medina temperature yesterday

Maximum temperature yesterday: 113 °F (at 4:00 PM)
Minimum temperature yesterday: 91 °F (at 6:00 AM)
Average temperature yesterday: 104 °F

Past Weeks' High & Low Weather Summary

 TemperatureHumidityPressure
High113 °F (Jul 4, 4:00 PM)40% (Jun 23, 10:00 PM)29.98 "Hg (Jun 23, 10:00 PM)
Low77 °F (Jun 27, 6:00 AM)1% (Jun 26, 1:00 PM)29.71 "Hg (Jun 22, 5:00 PM)
Average97 °F10%29.87 "Hg
* Reported Jun 22 4:00 PM — Jul 7 4:00 PM, Medina, Weather by CustomWeather, © 2015

Note: Actual official high and low records may vary slightly from our data, if they occured in-between our weather recording intervals... More about our weather records

Advertising

Medina weather history for previous 24 hours

 ConditionsComfort  
Time TempWeatherWind HumidityBarometerVisibility
4:00 PM
Tue, Jul 7
111 °FScattered clouds.18 mph3%29.77 "HgN/A
3:00 PM111 °FScattered clouds.10 mph4%29.80 "HgN/A
2:00 PM111 °FPassing clouds.14 mph4%29.80 "HgN/A
1:00 PM111 °FSunny.6 mph4%29.83 "Hg10 mi
12:00 PM108 °FSunny.10 mph5%29.86 "Hg10 mi
11:00 AM106 °FSunny.13 mph6%29.89 "Hg10 mi
10:00 AM102 °FPassing clouds.6 mph9%29.89 "Hg6 mi
9:00 AM99 °FScattered clouds.16 mph10%29.89 "Hg5 mi
8:00 AM97 °FScattered clouds.9 mph11%29.89 "Hg2 mi
7:00 AM95 °FScattered clouds.9 mph11%29.86 "Hg3 mi
6:00 AM93 °FScattered clouds.5 mph12%29.86 "Hg3 mi
5:00 AM97 °FClear.6 mph11%29.86 "Hg4 mi
4:00 AM97 °FClear.12 mph12%29.83 "Hg4 mi
3:00 AM97 °FClear.3 mph10%29.83 "Hg10 mi
2:00 AM100 °FClear.7 mph10%29.86 "Hg4 mi
1:00 AM99 °FClear.No wind8%29.86 "Hg10 mi
12:00 AM102 °FClear.5 mph7%29.86 "Hg6 mi
11:00 PM
Mon, Jul 6
102 °FClear.9 mph7%29.89 "Hg6 mi
10:00 PM104 °FClear.16 mph7%29.86 "Hg6 mi
9:00 PM104 °FClear.17 mph8%29.89 "Hg6 mi
8:00 PM106 °FPassing clouds.15 mph5%29.86 "Hg4 mi
7:00 PM108 °FLow level haze.17 mph5%29.83 "Hg3 mi
6:00 PM108 °FLow level haze.21 mph7%29.80 "Hg2 mi
5:00 PM111 °FScattered clouds.12 mph2%29.80 "HgN/A
Weather by CustomWeather, © 2015

See weather overviewHow to use our weather pages